QPF
0.01 0.01 0.02 0.02 0.02 0.03 0.04 0.06 0.08 0.06 0.02 0.00 0.01 0.01 0.02 0.01 0.01 0.01 0.01 0.01 0.01 0.02 0.02 0.02 0.02 0.01 0.01 0.01 0.01 0.02 0.03 0.03 0.06 0.10 0.16 0.27 0.40 0.50
0.00 0.01 0.01 0.02 0.02 0.02 0.03 0.04 0.07 0.09 0.06 0.01 0.01 0.01 0.02 0.01 0.01 0.01 0.01 0.01 0.01 0.01 0.01 0.02 0.02 0.02 0.01 0.01 0.01 0.01 0.02 0.03 0.04 0.08 0.11 0.20 0.33 0.44
0.00 0.01 0.01 0.01 0.02 0.02 0.03 0.04 0.05 0.08 0.07 0.02 0.01 0.01 0.02 0.02 0.01 0.01 0.01 0.01 0.00 0.00 0.01 0.01 0.02 0.01 0.01 0.01 0.01 0.01 0.01 0.02 0.03 0.05 0.09 0.15 0.25 0.35
0.00 0.00 0.01 0.01 0.01 0.01 0.02 0.03 0.04 0.05 0.06 0.03 0.01 0.02 0.02 0.02 0.01 0.01 0.01 0.01 0.00 0.00 0.01 0.01 0.01 0.01 0.01 0.01 0.01 0.01 0.01 0.01 0.02 0.03 0.05 0.10 0.18 0.30
0.00 0.00 0.00 0.01 0.01 0.01 0.01 0.02 0.02 0.02 0.02 0.02 0.01 0.01 0.01 0.01 0.01 0.01 0.01 0.01 0.00 0.00 0.00 0.01 0.01 0.01 0.01 0.01 0.01 0.01 0.01 0.01 0.02 0.02 0.03 0.08 0.14 0.23
0.00 0.00 0.01 0.01 0.01 0.01 0.01 0.01 0.01 0.01 0.01 0.01 0.01 0.01 0.01 0.01 0.01 0.01 0.01 0.00 0.00 0.00 0.00 0.00 0.00 0.01 0.01 0.01 0.01 0.01 0.01 0.01 0.02 0.03 0.03 0.05 0.11 0.18
0.01 0.01 0.01 0.02 0.02 0.03 0.04 0.03 0.03 0.02 0.01 0.01 0.01 0.00 0.01 0.01 0.01 0.01 0.01 0.00 0.00 0.01 0.01 0.00 0.01 0.01 0.01 0.01 0.01 0.02 0.01 0.01 0.01 0.02 0.04 0.04 0.07 0.13
0.02 0.02 0.01 0.01 0.01 0.02 0.03 0.03 0.03 0.03 0.02 0.02 0.01 0.01 0.00 0.01 0.01 0.02 0.02 0.02 0.01 0.01 0.01 0.01 0.02 0.01 0.01 0.01 0.02 0.02 0.02 0.01 0.01 0.02 0.04 0.05 0.05 0.10
0.02 0.02 0.02 0.01 0.01 0.01 0.01 0.01 0.01 0.01 0.01 0.02 0.02 0.01 0.01 0.01 0.02 0.02 0.03 0.03 0.02 0.01 0.02 0.03 0.03 0.02 0.02 0.02 0.04 0.03 0.02 0.02 0.02 0.02 0.03 0.05 0.06 0.08
0.02 0.02 0.02 0.01 0.01 0.03 0.05 0.03 0.02 0.01 0.00 0.00 0.00 0.00 0.01 0.02 0.03 0.04 0.04 0.03 0.02 0.02 0.03 0.04 0.04 0.03 0.02 0.03 0.04 0.04 0.03 0.02 0.02 0.02 0.02 0.04 0.06 0.08
0.02 0.01 0.01 0.01 0.02 0.06 0.08 0.05 0.02 0.01 0.00 0.00 0.00 0.01 0.01 0.02 0.03 0.03 0.03 0.03 0.02 0.02 0.04 0.06 0.06 0.05 0.04 0.03 0.04 0.05 0.04 0.03 0.03 0.03 0.03 0.03 0.05 0.08
0.02 0.01 0.01 0.02 0.05 0.08 0.07 0.04 0.01 0.01 0.01 0.00 0.00 0.00 0.00 0.00 0.01 0.03 0.04 0.04 0.04 0.03 0.03 0.05 0.08 0.09 0.06 0.04 0.05 0.05 0.05 0.04 0.04 0.04 0.05 0.04 0.06 0.07
0.02 0.01 0.01 0.03 0.05 0.05 0.04 0.02 0.02 0.03 0.01 0.00 0.00 0.00 0.00 0.00 0.00 0.02 0.03 0.04 0.05 0.04 0.04 0.06 0.10 0.11 0.09 0.07 0.07 0.08 0.07 0.06 0.04 0.05 0.06 0.06 0.07 0.06
0.02 0.01 0.02 0.04 0.04 0.03 0.02 0.02 0.02 0.01 0.00 0.00 0.00 0.00 0.00 0.00 0.00 0.01 0.02 0.03 0.04 0.05 0.05 0.07 0.10 0.12 0.11 0.10 0.09 0.10 0.10 0.09 0.07 0.05 0.05 0.07 0.09 0.09
0.01 0.02 0.03 0.02 0.02 0.01 0.01 0.01 0.01 0.01 0.01 0.01 0.01 0.00 0.00 0.00 0.00 0.01 0.01 0.02 0.03 0.03 0.04 0.06 0.09 0.11 0.12 0.12 0.12 0.13 0.14 0.13 0.11 0.08 0.07 0.07 0.08 0.09
0.01 0.01 0.01 0.01 0.01 0.00 0.00 0.00 0.00 0.00 0.01 0.01 0.00 0.00 0.00 0.01 0.01 0.01 0.02 0.02 0.03 0.02 0.03 0.04 0.06 0.10 0.12 0.12 0.14 0.15 0.17 0.17 0.17 0.13 0.10 0.08 0.08 0.08
0.02 0.01 0.00 0.00 0.00 0.00 0.00 0.00 0.00 0.00 0.00 0.00 0.00 0.01 0.01 0.01 0.01 0.01 0.02 0.03 0.04 0.03 0.03 0.04 0.06 0.09 0.12 0.13 0.14 0.16 0.17 0.18 0.21 0.19 0.14 0.12 0.12 0.10
0.01 0.00 0.00 0.00 0.01 0.01 0.00 0.00 0.00 0.00 0.01 0.01 0.01 0.01 0.01 0.01 0.01 0.01 0.02 0.03 0.04 0.04 0.04 0.05 0.08 0.10 0.12 0.12 0.13 0.17 0.19 0.21 0.24 0.25 0.19 0.15 0.14 0.14
0.00 0.00 0.00 0.01 0.01 0.01 0.01 0.01 0.01 0.01 0.01 0.01 0.01 0.01 0.01 0.01 0.01 0.02 0.02 0.03 0.03 0.04 0.05 0.07 0.09 0.12 0.13 0.14 0.14 0.18 0.20 0.23 0.27 0.30 0.25 0.17 0.14 0.14
0.00 0.01 0.01 0.01 0.01 0.01 0.01 0.01 0.01 0.01 0.01 0.01 0.01 0.01 0.01 0.01 0.02 0.02 0.02 0.03 0.04 0.04 0.05 0.07 0.10 0.12 0.15 0.16 0.17 0.21 0.24 0.25 0.27 0.30 0.29 0.22 0.19 0.22
0.01 0.01 0.01 0.01 0.01 0.01 0.01 0.01 0.01 0.01 0.01 0.01 0.01 0.01 0.01 0.01 0.02 0.02 0.02 0.03 0.04 0.04 0.06 0.08 0.10 0.12 0.15 0.15 0.17 0.22 0.25 0.29 0.29 0.30 0.29 0.25 0.23 0.25
0.01 0.01 0.01 0.01 0.01 0.02 0.02 0.01 0.01 0.01 0.01 0.01 0.01 0.01 0.01 0.01 0.02 0.02 0.02 0.03 0.04 0.05 0.06 0.07 0.09 0.12 0.15 0.17 0.19 0.22 0.24 0.27 0.33 0.36 0.34 0.29 0.23 0.22
0.01 0.01 0.01 0.01 0.01 0.02 0.02 0.02 0.01 0.01 0.01 0.01 0.01 0.01 0.01 0.01 0.01 0.02 0.02 0.02 0.03 0.04 0.06 0.07 0.09 0.13 0.17 0.18 0.20 0.22 0.23 0.26 0.32 0.37 0.42 0.42 0.33 0.23
MSLP
1024.69 1024.34 1023.89 1023.31 1022.58 1021.70 1020.70 1019.61 1018.50 1017.40 1016.36 1015.42 1014.56 1013.79 1013.08 1012.38 1011.68 1010.96 1010.22 1009.48 1008.77 1008.12 1007.55 1007.09 1006.71 1006.40 1006.13 1005.85 1005.54 1005.17 1004.75 1004.30 1003.88 1003.52 1003.29 1003.24 1003.40 1003.78
1023.94 1023.63 1023.24 1022.74 1022.09 1021.30 1020.39 1019.39 1018.35 1017.31 1016.32 1015.39 1014.54 1013.76 1013.01 1012.29 1011.56 1010.81 1010.04 1009.28 1008.55 1007.89 1007.31 1006.82 1006.43 1006.10 1005.82 1005.54 1005.22 1004.86 1004.46 1004.02 1003.60 1003.25 1003.00 1002.91 1003.01 1003.31
1023.06 1022.78 1022.42 1021.96 1021.39 1020.69 1019.88 1019.00 1018.07 1017.14 1016.24 1015.39 1014.59 1013.84 1013.11 1012.38 1011.62 1010.84 1010.03 1009.22 1008.43 1007.71 1007.07 1006.53 1006.08 1005.72 1005.40 1005.11 1004.80 1004.46 1004.10 1003.71 1003.33 1003.00 1002.76 1002.66 1002.72 1002.96
1022.08 1021.78 1021.42 1021.00 1020.48 1019.86 1019.16 1018.40 1017.61 1016.82 1016.05 1015.32 1014.62 1013.94 1013.25 1012.53 1011.76 1010.94 1010.08 1009.21 1008.34 1007.53 1006.81 1006.18 1005.66 1005.23 1004.88 1004.57 1004.27 1003.96 1003.64 1003.32 1003.00 1002.73 1002.54 1002.45 1002.50 1002.69
1020.99 1020.66 1020.29 1019.87 1019.38 1018.83 1018.23 1017.59 1016.94 1016.30 1015.69 1015.10 1014.52 1013.93 1013.31 1012.63 1011.87 1011.03 1010.13 1009.18 1008.24 1007.34 1006.51 1005.79 1005.18 1004.68 1004.27 1003.93 1003.63 1003.35 1003.08 1002.82 1002.58 1002.38 1002.24 1002.19 1002.25 1002.42
1019.84 1019.46 1019.06 1018.63 1018.16 1017.65 1017.12 1016.59 1016.07 1015.58 1015.11 1014.66 1014.22 1013.74 1013.21 1012.58 1011.86 1011.02 1010.09 1009.10 1008.09 1007.11 1006.19 1005.38 1004.67 1004.09 1003.62 1003.23 1002.92 1002.65 1002.42 1002.21 1002.03 1001.90 1001.82 1001.82 1001.91 1002.09
1018.68 1018.26 1017.82 1017.36 1016.88 1016.40 1015.92 1015.47 1015.05 1014.67 1014.34 1014.02 1013.70 1013.34 1012.90 1012.36 1011.68 1010.88 1009.96 1008.96 1007.91 1006.88 1005.89 1005.00 1004.21 1003.54 1002.99 1002.54 1002.19 1001.89 1001.66 1001.47 1001.33 1001.24 1001.22 1001.26 1001.39 1001.61
1017.56 1017.09 1016.61 1016.12 1015.63 1015.15 1014.70 1014.29 1013.95 1013.66 1013.42 1013.21 1013.00 1012.75 1012.41 1011.95 1011.35 1010.61 1009.74 1008.76 1007.72 1006.67 1005.65 1004.70 1003.84 1003.09 1002.45 1001.91 1001.48 1001.12 1000.84 1000.63 1000.48 1000.41 1000.41 1000.50 1000.67 1000.94
1016.52 1016.01 1015.49 1014.98 1014.47 1013.98 1013.54 1013.17 1012.86 1012.62 1012.45 1012.32 1012.20 1012.03 1011.78 1011.42 1010.91 1010.25 1009.45 1008.54 1007.54 1006.51 1005.48 1004.50 1003.58 1002.75 1002.02 1001.39 1000.84 1000.39 1000.02 999.73 999.54 999.43 999.43 999.54 999.75 1000.08
1015.59 1015.06 1014.53 1013.99 1013.47 1012.98 1012.54 1012.17 1011.88 1011.67 1011.54 1011.45 1011.38 1011.27 1011.10 1010.82 1010.40 1009.84 1009.13 1008.30 1007.38 1006.39 1005.39 1004.40 1003.45 1002.55 1001.73 1000.98 1000.31 999.73 999.23 998.84 998.55 998.39 998.36 998.46 998.70 999.08
1014.78 1014.25 1013.71 1013.18 1012.66 1012.18 1011.74 1011.37 1011.08 1010.88 1010.75 1010.68 1010.64 1010.57 1010.45 1010.23 1009.89 1009.41 1008.79 1008.05 1007.20 1006.29 1005.32 1004.35 1003.38 1002.43 1001.52 1000.67 999.88 999.15 998.53 998.01 997.61 997.37 997.28 997.37 997.62 998.03
1014.07 1013.57 1013.06 1012.55 1012.05 1011.58 1011.15 1010.79 1010.50 1010.29 1010.16 1010.08 1010.03 1009.98 1009.87 1009.68 1009.39 1008.97 1008.43 1007.76 1006.99 1006.14 1005.22 1004.27 1003.30 1002.32 1001.36 1000.42 999.51 998.67 997.92 997.28 996.78 996.44 996.30 996.35 996.61 997.05
1013.46 1013.00 1012.54 1012.08 1011.62 1011.18 1010.77 1010.42 1010.13 1009.91 1009.76 1009.66 1009.58 1009.50 1009.39 1009.20 1008.92 1008.53 1008.02 1007.40 1006.68 1005.88 1005.01 1004.09 1003.13 1002.15 1001.15 1000.15 999.18 998.25 997.40 996.67 996.08 995.67 995.47 995.49 995.74 996.19
1012.93 1012.54 1012.14 1011.73 1011.33 1010.93 1010.55 1010.21 1009.93 1009.70 1009.52 1009.38 1009.27 1009.15 1008.99 1008.77 1008.46 1008.06 1007.55 1006.95 1006.25 1005.48 1004.64 1003.75 1002.81 1001.84 1000.84 999.82 998.82 997.85 996.95 996.15 995.51 995.05 994.81 994.81 995.05 995.51
1012.47 1012.15 1011.82 1011.48 1011.13 1010.77 1010.43 1010.11 1009.83 1009.59 1009.39 1009.22 1009.05 1008.87 1008.65 1008.36 1008.00 1007.55 1007.01 1006.39 1005.69 1004.92 1004.10 1003.23 1002.32 1001.37 1000.39 999.39 998.39 997.42 996.50 995.70 995.04 994.56 994.30 994.29 994.52 994.98
1012.09 1011.83 1011.57 1011.28 1010.98 1010.66 1010.35 1010.05 1009.77 1009.52 1009.30 1009.09 1008.87 1008.63 1008.34 1007.98 1007.54 1007.03 1006.43 1005.76 1005.02 1004.24 1003.41 1002.55 1001.66 1000.74 999.79 998.83 997.86 996.92 996.03 995.24 994.59 994.12 993.87 993.86 994.09 994.56
1011.77 1011.58 1011.35 1011.10 1010.82 1010.53 1010.24 1009.95 1009.67 1009.42 1009.18 1008.94 1008.69 1008.39 1008.04 1007.61 1007.10 1006.51 1005.84 1005.10 1004.32 1003.50 1002.65 1001.78 1000.90 1000.00 999.09 998.16 997.24 996.34 995.49 994.74 994.12 993.67 993.44 993.45 993.70 994.18
1011.53 1011.36 1011.16 1010.91 1010.64 1010.35 1010.05 1009.76 1009.49 1009.23 1008.99 1008.74 1008.46 1008.14 1007.74 1007.26 1006.70 1006.04 1005.30 1004.51 1003.66 1002.79 1001.91 1001.02 1000.13 999.24 998.34 997.45 996.56 995.69 994.89 994.17 993.58 993.17 992.96 993.00 993.27 993.79
1011.34 1011.17 1010.96 1010.69 1010.39 1010.08 1009.76 1009.47 1009.19 1008.94 1008.70 1008.46 1008.19 1007.86 1007.45 1006.95 1006.35 1005.65 1004.87 1004.02 1003.13 1002.21 1001.28 1000.36 999.45 998.54 997.64 996.75 995.87 995.03 994.24 993.55 992.99 992.61 992.43 992.50 992.81 993.37
1011.16 1010.98 1010.72 1010.42 1010.07 1009.71 1009.37 1009.06 1008.78 1008.54 1008.33 1008.11 1007.87 1007.57 1007.18 1006.69 1006.08 1005.37 1004.56 1003.68 1002.75 1001.79 1000.82 999.86 998.91 997.97 997.05 996.14 995.25 994.41 993.63 992.95 992.40 992.04 991.89 991.99 992.35 992.96
1010.96 1010.74 1010.43 1010.06 1009.66 1009.26 1008.88 1008.55 1008.28 1008.06 1007.88 1007.71 1007.51 1007.26 1006.92 1006.46 1005.89 1005.19 1004.38 1003.49 1002.54 1001.55 1000.54 999.54 998.55 997.58 996.62 995.69 994.78 993.92 993.13 992.44 991.90 991.55 991.42 991.55 991.96 992.64
1010.71 1010.43 1010.07 1009.63 1009.17 1008.72 1008.31 1007.97 1007.70 1007.51 1007.38 1007.26 1007.14 1006.95 1006.67 1006.27 1005.74 1005.08 1004.30 1003.41 1002.46 1001.46 1000.43 999.41 998.39 997.38 996.40 995.43 994.50 993.62 992.82 992.13 991.59 991.24 991.14 991.31 991.76 992.51
1010.37 1010.05 1009.62 1009.13 1008.61 1008.12 1007.69 1007.35 1007.10 1006.95 1006.86 1006.81 1006.76 1006.64 1006.43 1006.10 1005.62 1005.01 1004.26 1003.40 1002.46 1001.47 1000.45 999.42 998.39 997.38 996.38 995.41 994.48 993.59 992.78 992.09 991.56 991.23 991.14 991.34 991.84 992.64
Thickness
5194 5185 5176 5169 5161 5154 5148 5143 5140 5146 5157 5161 5161 5166 5171 5182 5196 5212 5231 5251 5273 5296 5320 5345 5373 5401 5429 5456 5483 5508 5533 5556 5578 5599 5619 5637 5652 5663
5195 5186 5178 5171 5164 5157 5152 5148 5144 5144 5150 5159 5161 5165 5171 5180 5192 5206 5223 5243 5263 5284 5307 5332 5358 5386 5414 5442 5469 5495 5519 5543 5566 5588 5608 5627 5643 5655
5196 5188 5181 5173 5166 5160 5156 5152 5149 5147 5150 5160 5163 5167 5172 5179 5189 5202 5218 5235 5254 5274 5296 5320 5346 5373 5401 5429 5455 5481 5506 5531 5554 5576 5597 5617 5633 5648
5199 5190 5183 5176 5169 5163 5159 5156 5153 5151 5151 5157 5164 5167 5172 5178 5187 5199 5214 5231 5247 5267 5288 5311 5335 5362 5389 5417 5443 5469 5495 5519 5543 5566 5589 5609 5625 5638
5202 5193 5186 5178 5172 5167 5162 5159 5157 5156 5154 5156 5162 5167 5171 5178 5186 5198 5211 5226 5243 5262 5281 5303 5326 5351 5378 5405 5431 5458 5485 5512 5537 5558 5576 5595 5614 5630
5206 5197 5189 5181 5175 5171 5167 5163 5160 5157 5156 5157 5162 5167 5171 5177 5183 5194 5209 5223 5238 5256 5275 5294 5316 5340 5367 5395 5425 5452 5477 5499 5523 5546 5568 5587 5605 5622
5210 5201 5193 5186 5181 5176 5173 5168 5163 5160 5159 5160 5163 5166 5170 5174 5181 5190 5203 5218 5234 5251 5267 5286 5307 5333 5359 5386 5412 5440 5466 5491 5515 5538 5559 5579 5597 5614
5213 5205 5196 5189 5184 5181 5177 5173 5168 5163 5161 5160 5161 5162 5166 5171 5178 5188 5198 5211 5228 5245 5258 5280 5300 5325 5351 5377 5405 5432 5459 5484 5507 5530 5552 5572 5590 5607
5214 5205 5198 5191 5186 5180 5176 5173 5168 5166 5165 5163 5160 5161 5165 5171 5177 5186 5196 5206 5220 5236 5251 5276 5298 5320 5345 5372 5399 5425 5451 5476 5500 5524 5545 5565 5583 5600
5214 5205 5197 5191 5185 5182 5178 5172 5167 5164 5162 5161 5161 5164 5168 5173 5178 5186 5194 5206 5220 5234 5247 5268 5292 5314 5340 5366 5393 5419 5446 5470 5494 5518 5539 5559 5577 5594
5216 5207 5199 5192 5189 5186 5180 5173 5168 5164 5164 5164 5166 5168 5172 5175 5181 5187 5193 5204 5218 5233 5246 5261 5282 5306 5334 5362 5388 5414 5440 5465 5489 5512 5533 5553 5571 5586
5218 5208 5200 5195 5192 5187 5179 5172 5168 5165 5163 5162 5164 5167 5169 5173 5180 5184 5190 5199 5211 5226 5242 5255 5274 5294 5323 5354 5380 5406 5432 5459 5483 5506 5527 5547 5564 5578
5218 5209 5200 5196 5192 5187 5180 5173 5170 5168 5163 5162 5163 5166 5169 5174 5179 5185 5191 5198 5209 5222 5237 5249 5266 5285 5307 5336 5367 5397 5424 5451 5476 5500 5521 5540 5557 5573
5217 5209 5201 5197 5192 5185 5179 5175 5172 5167 5162 5162 5163 5166 5170 5175 5181 5187 5195 5203 5212 5223 5235 5246 5262 5280 5299 5324 5354 5386 5416 5443 5469 5494 5515 5533 5550 5566
5218 5211 5204 5196 5189 5181 5177 5174 5169 5163 5161 5161 5162 5166 5170 5176 5183 5191 5199 5208 5218 5228 5239 5251 5263 5279 5296 5318 5344 5371 5401 5433 5459 5485 5507 5526 5545 5561
5217 5208 5201 5193 5186 5181 5175 5170 5165 5162 5161 5160 5162 5165 5170 5177 5184 5192 5200 5209 5220 5233 5244 5255 5268 5282 5300 5319 5339 5364 5390 5418 5450 5476 5498 5520 5539 5555
5218 5207 5199 5191 5184 5179 5173 5169 5165 5162 5160 5160 5161 5165 5171 5178 5185 5193 5201 5210 5219 5231 5245 5260 5274 5288 5304 5320 5340 5363 5387 5413 5441 5466 5490 5512 5532 5550
5216 5205 5197 5189 5183 5177 5173 5168 5165 5162 5161 5160 5162 5165 5170 5177 5185 5194 5203 5211 5221 5233 5246 5261 5276 5293 5311 5328 5343 5363 5386 5412 5437 5461 5485 5507 5526 5543
5212 5203 5195 5188 5182 5177 5172 5168 5165 5163 5161 5161 5163 5166 5171 5178 5186 5194 5204 5214 5224 5236 5249 5262 5277 5293 5311 5331 5350 5366 5386 5410 5433 5457 5480 5503 5524 5540
5211 5202 5195 5188 5182 5177 5173 5169 5166 5164 5163 5163 5164 5167 5172 5179 5187 5195 5205 5215 5227 5239 5252 5266 5280 5295 5310 5327 5345 5366 5386 5408 5431 5454 5476 5495 5515 5532
5211 5203 5196 5189 5183 5178 5173 5169 5166 5165 5164 5164 5166 5169 5174 5180 5188 5197 5207 5219 5231 5242 5255 5270 5284 5299 5314 5329 5346 5366 5386 5407 5429 5452 5471 5491 5507 5521
5211 5203 5196 5189 5183 5178 5174 5170 5168 5166 5166 5166 5168 5172 5177 5183 5191 5199 5209 5220 5233 5245 5259 5274 5289 5303 5318 5334 5350 5367 5387 5407 5427 5448 5467 5488 5506 5522
5212 5204 5197 5190 5184 5179 5175 5172 5170 5169 5169 5169 5171 5175 5180 5187 5194 5203 5213 5224 5236 5250 5264 5278 5293 5308 5321 5336 5351 5368 5386 5405 5424 5441 5458 5480 5501 5520